STARLINK-1573 (46061 NORAD) Tracking and Keplerian Element Data

This shows tracking and keplerian element data for the satellite.

Feedback or suggestion? Click here.




ElementValue
Catalog46061
NameSTARLINK-1573
Epoch Orbit1931
Epoch Day338.50879141
Epoch Year2020
RAAN105.5936
Inclination53.0348
Eccentricity5.69E-05
Argument of Perigee87.383
Mean Anonmoly272.7223
Mean Motion15.06406127
Decay Rate9.58E-06
L11 46061U 20055AL 20338.50879141 .00000958 00000-0 83184-4 0 9990
L22 46061 53.0348 105.5936 0000569 87.3830 272.7223 15.06406127 19311

Live tracking and technical data element details for STARLINK-1573 (NORAD 46061). STARLINK-1573 can be tracked NOW for your location showing map with azimuth and elevation plus other details from your city location.

Track the satellite on the map from your city or location and see movement details for azimuth, elevation, latitude, longitude, range, height, and movement on the map or in text.







IsCatalogInMostPopularTable: catalog: 46061, numindb: 23
Update: records affected: 1



GetName: 46061 STARLINK-1573

Hit Count: updated at: Sun, 06 Dec 2020 01:05:56 GMT